Starlink 4716

operational
NORAD ID: 53706 Int'l Des: 2022-107 Owner: SPXS Country: US Constellation: starlink
LEOCIRCULAR

关于 Starlink 4716

正在加载描述...

实时位置

正在加载3D地球...

即将过境

高度历史

Altitude vs Time

uPlot chart will show altitude changes over time

两行轨道根数

1 53706U 22107G 25304.85705487 -.00000494 00000-0 -12938-4 0 9997
2 53706 53.2152 102.5307 0001184 87.0301 273.0827 15.08835915175403
Epoch: Oct 31, 2025 • Age: 30 hours

当前状态

高度 555.1 km
速度 7.58 km/s
星下点 -43.45°S, 27.19°W
发射日期 Sep 5, 2022
运行时间 3.1 years
类型 internet

技术详情

分类 Payload
质量 305.00 kg
干质量 290.00 kg
总质量 305.00 kg
长度 0.20 m
直径 2.80 m
跨度 9.00 m
形状 Box + pan
制造商 SPXS
平台类型 Starlink
阶段状态 In Orbit
所有者/国家 SPXS/US

大型星座

Loading constellations...